Overview Statistics Trail Chart Weather Telemetry Raw packets
 

This is the latest recevied weather packets stored in our database for station/object IU5GBO-13. If no packets are shown the sender has not sent any weather packets the latest 10 day(s).

<< 2 3 4 5 6 7 8 >>
Time Temp. Humidity Pressure Rain* Wind** Luminosity Snow
1788512019 31.67° C 45% 1020.1 hPa - - - -
1788511418 31.11° C 45% 1020.1 hPa - - - -
1788510819 31.11° C 45% 1020 hPa - - - -
1788510219 31.11° C 46% 1020.1 hPa - - - -
1788509618 31.11° C 44% 1019.9 hPa - - - -
1788509019 30.56° C 46% 1019.8 hPa - - - -
1788508419 30° C 47% 1019.8 hPa - - - -
1788507818 29.44° C 49% 1019.7 hPa - - - -
1788507219 29.44° C 46% 1019.7 hPa - - - -
1788506618 28.89° C 47% 1019.6 hPa - - - -
1788506019 27.78° C 48% 1019.6 hPa - - - -
1788505419 27.78° C 49% 1019.5 hPa - - - -
1788504818 27.22° C 48% 1019.5 hPa - - - -
1788504219 26.67° C 49% 1019.5 hPa - - - -
1788503619 25° C 53% 1019.5 hPa - - - -
1788503018 23.89° C 56% 1019.6 hPa - - - -
1788502418 22.22° C 60% 1019.4 hPa - - - -
1788501818 21.67° C 61% 1019.4 hPa - - - -
1788501218 21.67° C 61% 1019.5 hPa - - - -
1788500618 21.11° C 62% 1019.3 hPa - - - -
1788500018 21.11° C 64% 1019.3 hPa - - - -
1788499419 20.56° C 64% 1019.2 hPa - - - -
1788498818 20° C 67% 1019.2 hPa - - - -
1788498218 20° C 68% 1019.1 hPa - - - -
1788497618 20° C 67% 1019.1 hPa - - - -

* Rain since midnight (hover to see other rain measurements)
** Current wind speed in m/s (hover to see current wind gust speed)